Lapse_Rate
4.6 4.6 4.3 4.3 4.2 4.3 4.2 4.2 4.1 4.2 3.9 3.8 3.8 3.5 3.0 2.6 2.6 2.0 1.6 1.6 1.4 1.1 1.5 1.5 1.0 1.4 2.3 4.6 3.8 6.5 6.3 5.8 4.8 5.5 6.0 6.0 5.0 5.3 6.5 6.0 5.2 6.5 6.4 5.2 4.4 5.1 4.8
4.7 4.7 4.6 4.7 4.5 4.5 4.4 4.5 4.5 4.4 4.4 4.5 4.6 4.2 3.6 3.3 2.5 1.9 1.3 1.7 1.5 1.3 1.6 1.6 1.2 2.1 4.7 6.3 5.8 7.0 5.8 6.4 6.9 6.8 5.8 5.9 6.2 6.2 6.0 6.1 6.4 5.7 5.6 4.9 4.7 5.1 5.8
4.1 4.2 4.4 4.7 4.6 5.1 4.8 4.8 4.9 5.0 4.8 4.6 4.5 3.9 3.8 3.1 2.2 1.7 1.5 1.6 1.6 1.5 1.7 1.1 1.7 3.4 4.6 3.4 4.9 5.9 4.9 5.7 7.5 7.6 6.8 7.2 6.5 5.7 5.7 6.5 5.7 6.1 6.5 6.4 5.7 5.1 6.2
3.1 3.5 3.2 3.2 3.4 3.9 4.2 4.2 4.2 4.4 4.5 4.4 4.1 3.9 3.2 2.6 2.2 2.4 1.8 1.5 1.5 1.6 1.2 1.1 1.3 2.7 4.6 3.9 5.1 4.6 4.6 5.1 7.0 7.7 7.5 7.3 6.6 6.3 6.1 5.3 5.5 6.5 6.5 6.5 6.5 6.4 5.8
3.0 3.3 3.2 3.0 3.4 3.2 2.8 3.0 3.2 3.7 3.4 2.9 2.7 2.9 3.3 2.8 3.2 3.0 1.6 0.8 1.1 1.1 0.8 1.4 2.2 3.3 4.7 4.6 5.2 5.9 5.1 6.9 7.3 7.2 6.9 7.7 7.0 5.7 5.8 6.5 6.5 6.5 6.5 6.5 6.5 6.3 6.5
4.2 4.1 3.8 3.7 3.5 3.4 3.3 3.3 3.2 2.8 2.2 1.9 2.6 3.0 3.3 3.2 2.9 2.5 1.6 1.9 2.3 1.0 3.3 4.2 5.8 5.9 4.6 6.1 7.3 7.8 7.4 6.9 6.9 6.7 6.6 6.3 4.9 6.5 6.5 6.5 6.5 6.5 6.5 6.5 6.5 6.5 6.5
4.5 4.5 4.1 4.2 4.0 3.7 3.8 3.9 3.6 3.1 3.2 3.1 3.2 3.2 3.4 3.1 2.9 2.1 2.0 1.8 4.3 4.8 5.0 5.8 6.4 5.1 4.8 5.9 6.5 6.7 7.6 7.5 7.0 6.5 6.5 5.5 6.5 6.5 6.5 6.5 6.5 6.5 6.5 6.5 6.5 6.5 6.5
5.5 5.1 4.8 4.5 3.9 3.9 4.3 4.6 4.5 4.1 3.8 3.8 3.4 3.5 3.3 3.3 2.9 2.7 2.2 3.5 6.6 7.2 6.5 6.8 5.9 6.2 6.2 7.2 7.1 5.6 7.0 6.4 5.9 6.5 6.5 6.5 6.5 6.5 6.5 6.5 6.5 6.5 6.5 6.5 6.5 6.5 6.5
6.2 6.3 5.9 5.5 5.2 4.8 5.1 5.1 4.7 4.4 4.3 3.9 3.9 3.8 3.5 3.7 3.2 2.8 3.3 4.8 6.1 5.6 6.0 6.8 6.9 7.3 6.4 6.8 7.0 5.1 7.2 6.0 6.3 6.5 6.5 6.5 6.5 6.5 6.5 6.5 6.5 6.5 6.5 6.5 6.5 6.5 6.5
6.1 6.3 6.5 6.3 6.1 5.7 5.2 5.1 5.0 4.8 4.7 4.6 4.3 3.8 4.0 4.1 4.2 3.2 3.9 5.3 5.6 5.9 6.5 6.5 6.6 6.2 7.6 7.3 6.4 6.9 7.5 6.4 6.3 6.5 6.5 6.5 6.5 6.5 6.5 6.5 6.5 6.5 6.5 6.5 6.5 6.5 6.5
6.5 6.3 6.2 6.1 6.1 6.2 6.2 6.2 6.2 5.9 5.5 5.4 5.4 5.1 4.4 3.9 3.6 4.5 5.6 4.7 6.2 5.9 6.5 6.5 6.4 6.7 6.1 6.6 6.6 6.8 6.7 6.4 6.5 6.5 6.5 6.5 6.5 6.5 6.5 6.5 6.5 6.5 6.5 6.5 6.5 6.5 6.5
6.3 6.3 6.4 6.4 6.7 6.6 6.5 6.3 6.1 6.0 5.9 5.9 6.0 5.8 5.4 4.4 3.3 4.6 4.6 4.6 6.0 6.5 6.5 6.5 6.4 6.5 6.5 6.3 6.5 6.4 6.5 6.4 6.4 6.5 6.5 6.5 6.1 6.5 6.5 6.5 6.5 6.5 6.5 6.5 6.5 6.5 6.5
6.4 6.1 6.1 6.2 6.4 6.5 6.6 6.6 6.5 6.5 6.1 6.1 6.2 6.2 5.6 6.0 5.0 4.8 5.0 5.1 6.5 6.5 6.5 6.5 6.5 6.5 6.5 6.5 6.5 6.5 6.5 6.5 6.5 6.5 6.5 6.5 6.5 6.5 6.3 6.5 6.5 6.5 6.5 6.5 6.5 6.5 6.5
6.8 6.7 6.5 6.2 6.1 6.2 6.3 6.4 6.4 6.6 6.2 6.5 6.7 6.5 5.6 5.9 5.6 5.4 5.7 6.5 6.5 6.5 6.5 6.5 6.5 6.5 6.5 6.5 6.5 6.5 6.5 6.5 6.5 6.5 6.5 6.5 6.5 6.5 6.5 6.5 6.5 6.5 6.5 6.5 6.5 6.5 6.5
7.6 7.2 6.8 6.3 6.1 6.1 6.3 6.5 6.8 6.8 6.3 6.7 6.6 4.9 5.0 5.0 5.7 6.0 5.7 6.5 6.5 6.5 6.5 6.5 6.5 6.5 6.5 6.5 6.5 6.5 6.5 6.5 6.5 6.5 6.5 6.5 6.5 6.5 6.5 6.5 6.5 6.5 6.5 6.5 6.5 6.5 6.5
8.8 8.1 7.5 6.7 6.3 6.1 6.2 6.5 6.9 7.0 6.6 6.6 5.0 5.2 5.0 6.2 6.1 6.1 6.5 6.5 6.5 6.5 6.5 6.5 6.5 6.5 6.5 6.5 6.5 6.5 6.5 6.5 6.5 6.5 6.2 6.5 6.5 6.5 6.5 6.3 6.4 6.5 6.5 6.5 6.5 6.5 6.5
8.2 8.0 8.2 7.5 6.9 6.3 6.2 6.3 6.7 7.1 7.0 6.7 6.2 6.6 4.8 5.1 6.6 6.4 6.5 6.5 6.5 6.7 6.7 6.5 6.5 6.5 6.5 6.5 6.5 6.5 6.5 6.5 6.5 6.5 6.3 6.5 6.5 6.5 6.5 6.5 6.5 6.5 6.5 6.5 6.5 6.5 6.5
8.0 7.8 7.7 7.5 7.5 7.1 6.6 6.3 6.4 6.8 6.7 5.8 5.8 6.5 4.6 6.4 6.4 6.3 6.5 6.5 6.4 6.6 6.9 6.5 6.5 6.5 6.5 6.5 6.5 6.5 6.5 6.5 6.1 6.3 6.5 6.5 6.5 6.5 6.5 6.5 6.5 6.5 6.5 6.5 6.5 6.5 6.5
8.0 7.8 7.6 7.6 7.5 7.3 7.0 6.6 6.4 6.6 6.2 5.4 6.1 6.5 5.5 5.5 6.5 6.5 6.5 6.5 6.6 6.5 6.5 6.5 6.5 6.5 6.5 6.5 6.5 6.5 6.5 6.2 6.4 6.5 6.5 6.5 6.5 6.5 6.5 6.5 6.5 6.5 6.5 6.5 6.5 6.5 6.5
8.0 7.8 7.5 7.5 7.6 7.6 7.3 6.9 6.5 6.5 6.9 5.3 6.4 6.5 6.1 5.8 5.2 6.4 6.5 6.5 6.5 6.8 6.6 6.7 6.5 6.5 6.5 6.5 6.5 6.5 6.5 6.5 6.1 6.5 4.9 6.0 6.5 6.5 6.5 6.5 6.5 6.5 6.5 6.5 6.5 6.5 6.5
7.9 7.8 7.6 7.5 7.5 7.8 7.7 7.3 6.7 6.7 6.9 6.1 6.3 6.3 6.9 6.5 6.5 6.5 6.5 6.5 6.5 6.5 6.6 6.4 6.5 6.5 6.5 6.5 6.5 6.5 6.5 6.5 6.5 6.0 6.3 6.5 6.5 6.5 6.5 6.5 6.5 6.5 6.5 6.5 6.5 6.5 6.5
8.5 8.2 7.9 7.5 7.5 7.6 7.7 7.6 7.1 6.6 7.1 6.5 5.3 6.7 6.7 6.6 6.5 6.5 6.5 6.5 6.5 6.5 6.5 6.5 6.5 6.5 6.5 6.5 6.5 6.5 6.5 6.5 6.5 6.5 6.5 6.5 6.5 6.5 6.5 6.5 6.5 6.5 6.5 6.5 6.5 6.5 6.5
9.0 9.0 8.8 8.5 8.0 7.7 7.6 7.6 7.4 7.1 7.2 6.5 5.7 6.2 6.6 6.6 6.5 6.5 6.5 6.5 6.5 6.5 6.4 6.5 6.4 6.5 6.5 6.5 6.6 6.9 6.9 6.9 6.6 6.5 6.5 6.5 6.5 6.5 6.5 6.5 6.5 6.5 6.5 6.5 6.5 6.5 6.5
9.0 8.8 9.1 8.5 8.4 8.1 7.9 7.7 7.5 7.3 7.2 6.4 6.0 6.5 6.5 6.5 6.5 6.5 6.5 6.5 6.5 6.5 6.5 6.3 5.3 6.5 6.8 6.4 6.5 6.3 7.1 6.8 6.5 6.4 6.0 6.5 6.5 6.5 6.5 6.5 6.5 6.5 6.5 6.5 6.5 6.5 6.5
8.7 8.8 8.7 8.6 8.7 8.4 8.0 7.7 7.7 7.5 7.4 5.8 6.2 6.7 6.1 6.5 6.6 6.5 6.5 6.5 6.4 6.6 6.5 6.4 6.1 5.7 5.4 7.0 6.5 6.5 6.5 6.5 6.5 6.5 6.5 6.5 6.5 6.5 6.5 6.5 6.5 6.5 6.5 6.5 6.5 6.5 6.5
8.5 8.7 8.6 8.7 8.4 8.2 8.0 7.9 7.8 7.7 7.6 6.0 5.6 6.7 6.6 6.8 6.5 6.9 6.5 6.3 6.5 6.5 6.5 6.4 6.5 5.5 5.9 6.5 6.5 6.5 6.5 6.5 6.5 6.5 6.5 6.5 6.5 6.5 6.5 6.5 6.5 6.5 6.5 6.4 6.5 6.5 6.5
8.5 8.5 8.7 8.5 8.3 8.2 8.1 8.0 7.8 7.8 7.5 6.1 5.4 6.0 6.6 6.5 6.3 6.8 6.4 6.4 6.0 6.0 6.5 6.6 6.6 6.7 6.5 6.5 6.5 6.5 6.5 6.5 6.5 6.5 6.5 6.5 6.5 6.5 6.5 6.5 6.5 6.5 6.3 6.3 6.5 6.5 5.7
8.4 8.5 8.5 8.4 8.3 8.3 8.1 8.1 8.0 7.5 7.5 7.0 7.1 6.3 6.8 5.8 6.4 7.2 7.7 6.5 5.3 5.9 6.5 6.5 6.6 6.7 6.5 6.5 6.5 6.5 6.5 6.5 6.5 6.5 6.5 6.5 6.5 6.5 6.5 6.5 6.5 6.1 6.2 6.5 6.1 5.0 4.6
8.3 8.4 8.4 8.4 8.3 8.2 8.1 8.1 7.8 7.7 7.5 7.4 6.7 6.4 6.2 6.8 6.0 6.2 6.4 5.0 6.0 4.2 4.5 5.8 6.1 6.6 6.6 6.5 6.5 6.5 6.5 6.5 6.5 6.5 6.5 6.5 6.5 6.5 6.5 6.5 6.0 5.5 5.7 5.7 5.2 5.2 4.9
Wind_Speed
18 18 17 17 15 16 15 16 14 15 13 13 14 14 13 13 17 18 19 21 19 17 20 19 19 26 8 4 9 6 6 10 6 6 4 4 5 3 3 5 7 3 3 5 5 3 3
19 19 18 18 17 18 17 17 16 17 16 16 16 14 14 14 14 17 18 20 20 19 19 17 14 18 3 8 4 8 3 10 2 2 4 5 2 3 1 3 1 3 4 8 6 5 4
5 12 18 20 19 19 19 19 18 18 18 17 16 13 12 12 13 17 19 20 20 20 20 13 11 6 3 15 4 17 8 7 4 2 2 1 2 5 4 5 1 3 6 7 10 6 7
5 8 8 7 3 8 16 19 19 19 19 18 12 7 7 10 13 19 21 23 24 21 17 11 5 1 7 7 18 14 9 6 7 4 3 3 3 1 3 4 6 2 2 3 4 3 4
5 2 4 5 3 4 4 2 3 4 6 6 5 3 6 9 13 17 19 24 25 20 14 9 0 3 9 14 5 9 7 5 4 4 4 2 3 3 3 2 4 3 3 5 8 1 3
5 4 3 4 2 1 2 2 1 2 3 2 4 4 5 9 14 18 22 28 21 8 3 4 2 2 6 3 6 4 3 6 4 3 2 2 1 1 2 3 4 4 3 3 4 3 3
14 13 9 9 8 6 5 5 3 2 3 3 4 5 7 9 12 16 11 5 5 3 1 5 4 5 13 7 9 6 4 3 2 2 6 3 1 7 9 8 7 5 6 4 4 7 4
14 14 14 14 11 9 11 11 11 10 8 8 7 7 5 6 9 9 5 2 1 1 10 12 20 22 23 12 12 19 3 4 6 6 2 3 8 12 9 10 8 8 6 6 6 5 6
12 13 14 12 11 13 14 13 13 10 9 8 7 7 6 7 5 2 3 5 15 8 5 7 17 10 11 13 17 28 7 6 5 7 9 10 9 6 7 7 7 5 4 4 6 4 3
7 8 10 11 11 11 10 10 11 11 11 11 9 5 4 5 2 2 3 5 14 3 4 7 6 7 6 7 6 20 17 7 6 18 4 8 12 16 16 11 8 11 5 3 2 3 4
5 6 7 8 9 10 11 11 11 11 11 9 8 5 4 4 1 1 3 11 11 3 5 3 4 5 6 8 1 2 7 8 21 7 7 9 3 1 4 9 13 11 7 6 2 1 1
1 4 6 8 9 10 11 11 10 11 12 11 9 5 4 1 1 5 16 10 3 3 9 6 4 5 4 4 3 3 3 4 7 11 10 13 5 3 2 4 1 5 3 2 1 3 5
4 4 5 7 8 10 12 12 12 12 15 13 10 7 4 1 3 7 7 3 3 6 3 4 5 4 3 4 4 2 1 1 5 4 13 10 19 10 7 5 3 3 4 2 3 1 5
4 5 5 6 8 11 13 13 13 14 15 14 10 8 5 5 2 7 1 2 7 4 11 4 4 5 5 4 5 5 3 5 4 1 3 5 7 14 10 18 8 6 7 5 5 3 3
8 6 4 2 7 9 12 14 14 15 15 11 8 1 2 4 12 2 2 5 9 6 4 4 7 4 5 5 5 4 6 7 8 9 7 3 5 5 5 5 12 5 4 4 3 2 2
10 10 8 5 5 8 10 12 13 15 16 16 3 2 4 13 13 3 6 19 8 4 5 6 2 4 3 2 6 7 6 4 7 13 8 4 3 4 4 6 5 6 5 2 2 2 3
11 11 10 9 7 7 8 10 12 15 18 17 3 2 4 18 7 4 11 14 16 11 9 2 3 3 3 3 3 4 6 5 3 1 8 6 5 4 1 1 6 2 3 2 3 5 4
13 12 12 11 11 10 8 8 10 12 17 11 3 3 2 9 6 6 14 12 7 9 8 14 8 11 13 7 4 4 4 3 2 4 5 5 5 4 4 2 2 6 8 6 4 5 2
15 14 14 14 13 11 10 8 9 11 20 4 4 3 2 3 7 9 15 17 15 8 9 5 6 6 5 5 3 6 5 3 2 3 3 4 1 1 7 4 2 3 4 4 4 3 6
16 15 16 15 16 15 12 11 9 10 14 3 3 5 3 3 3 13 15 18 17 11 19 18 11 9 3 4 5 7 6 2 7 2 7 4 4 6 9 4 2 4 0 3 4 3 3
17 16 16 16 16 15 14 14 12 10 11 7 4 4 2 6 6 11 6 5 20 18 14 7 9 19 13 5 5 12 10 7 4 1 4 5 3 1 3 3 1 2 3 1 2 3 5
19 18 18 17 17 18 17 15 15 12 9 7 4 3 4 3 4 12 12 16 19 15 10 13 19 18 7 18 14 5 5 5 5 2 2 4 3 3 3 3 1 5 4 5 6 5 6
21 19 19 18 19 20 20 18 17 14 10 3 1 3 2 4 6 8 16 23 19 9 10 15 11 4 9 11 4 4 9 9 14 10 10 10 6 2 12 3 3 8 6 7 6 6 6
23 21 21 20 21 21 22 20 19 18 16 2 1 2 4 5 7 11 8 14 23 18 17 4 8 16 2 5 1 4 12 13 17 8 7 5 6 4 3 4 7 7 5 5 9 7 8
24 22 22 22 23 22 21 22 22 21 20 4 2 3 2 4 8 9 15 17 13 17 18 15 7 4 5 4 1 4 1 5 5 5 9 6 5 3 4 7 5 5 5 4 1 6 3
25 24 23 23 22 21 21 20 20 21 21 6 3 4 3 2 8 13 11 9 13 7 4 4 3 5 3 2 2 3 4 6 6 5 5 5 6 4 1 4 7 5 12 15 3 4 1
25 24 24 23 24 21 21 21 20 20 21 7 3 6 1 3 3 6 9 8 2 4 2 3 4 5 4 4 3 3 3 8 5 7 6 5 2 9 5 5 6 5 7 3 6 5 7
24 24 24 24 23 21 21 21 22 20 20 11 3 9 5 2 5 6 14 4 1 4 5 5 2 2 2 3 3 3 3 3 2 4 6 7 8 4 3 4 9 4 4 9 5 3 6
24 23 23 23 23 22 21 22 21 18 19 16 4 5 7 4 4 4 9 7 13 11 5 3 1 5 5 3 3 2 3 2 3 4 1 3 6 4 7 6 6 4 5 3 3 3 4
Wind_Direction
238 239 239 241 242 247 251 254 255 262 267 272 281 291 301 308 309 310 311 313 317 323 319 325 339 339 346 342 249 278 255 272 308 323 26 344 26 13 22 326 335 48 332 317 328 229 236
240 242 243 243 242 245 247 252 255 257 263 269 274 281 288 296 304 304 306 308 312 315 313 315 339 337 5 291 281 324 315 302 314 14 26 42 343 286 275 289 88 285 307 296 287 258 237
198 242 245 247 246 247 248 249 252 257 261 264 269 273 286 301 312 306 302 301 304 304 303 310 329 343 270 253 267 303 309 274 275 149 23 355 109 41 342 312 305 279 304 320 265 242 224
113 109 89 64 52 260 261 259 259 261 259 256 245 252 292 315 321 308 308 305 304 296 297 300 319 70 246 260 284 283 260 246 253 252 188 168 57 207 189 288 346 331 37 321 305 110 251
141 136 121 99 73 65 58 57 238 222 240 194 204 264 310 324 317 308 316 308 299 295 278 267 347 141 267 305 275 261 197 233 229 250 253 240 84 219 336 129 355 354 240 222 309 30 132
241 236 247 258 263 259 141 137 112 137 160 171 286 296 308 325 322 325 320 302 284 310 259 174 266 20 267 304 324 271 211 219 226 222 330 199 66 269 20 95 224 239 228 255 263 332 18
212 218 210 216 222 229 247 245 217 228 242 250 278 300 321 331 341 333 337 340 11 342 33 227 230 249 292 276 313 303 279 158 101 143 183 252 136 231 228 214 235 241 230 251 219 241 244
212 210 212 204 194 214 231 229 230 227 228 260 267 275 288 315 334 333 320 286 247 289 286 233 248 247 248 256 283 274 321 195 162 220 217 289 241 243 252 258 233 222 229 247 280 283 175
218 218 219 217 218 203 216 219 219 216 224 220 234 265 281 290 314 306 239 259 311 357 277 247 236 233 242 199 222 256 183 204 186 212 226 219 238 248 249 262 260 240 203 215 236 322 332
225 228 229 229 221 232 229 222 222 220 218 219 214 203 265 275 283 315 253 279 312 178 290 273 238 245 186 196 258 232 225 183 218 233 216 245 238 240 260 251 234 253 236 191 177 96 218
241 232 235 244 246 244 236 230 235 231 223 224 216 203 201 204 296 179 316 350 324 63 299 218 213 163 164 173 230 191 194 182 225 208 174 224 219 153 264 265 240 248 155 151 167 225 9
272 256 252 259 258 249 245 239 238 235 219 216 214 204 165 151 200 299 326 322 77 65 247 298 192 200 145 223 290 5 68 89 193 225 246 248 251 299 284 335 73 131 124 106 139 143 267
232 230 260 259 262 262 257 248 242 239 214 203 213 202 190 212 219 347 331 36 96 205 318 239 213 169 198 194 228 167 192 180 185 193 236 255 250 257 231 211 177 105 76 336 320 11 241
270 267 272 276 262 256 255 243 234 236 218 195 209 198 246 234 282 19 50 111 213 200 216 309 340 330 204 190 236 194 184 226 234 256 344 224 309 217 194 211 186 185 161 165 219 208 255
247 259 278 302 293 281 265 252 236 223 200 190 167 266 255 245 233 115 200 213 225 156 263 307 334 277 213 224 211 185 220 206 202 187 190 262 273 299 193 155 160 188 163 189 122 18 79
250 251 258 290 305 297 274 260 241 222 196 171 147 188 229 215 174 141 223 230 220 217 330 1 309 299 327 294 196 183 203 218 218 213 186 227 281 331 0 66 25 138 140 94 12 153 231
253 258 264 271 282 295 287 266 251 227 200 167 128 220 258 152 135 215 207 230 224 241 286 289 272 285 252 294 243 237 211 264 231 192 163 162 148 263 59 150 173 138 133 160 131 144 192
247 250 249 254 265 272 283 279 252 235 192 155 147 218 249 140 175 198 219 220 223 249 261 241 268 266 260 268 296 262 258 212 56 176 176 186 142 196 199 110 244 197 202 167 157 221 191
247 250 248 247 251 257 265 272 267 251 180 136 176 209 233 146 201 210 225 234 247 266 246 252 244 219 219 224 246 306 260 345 338 131 212 199 155 84 341 346 135 231 239 186 126 100 189
248 250 249 251 248 247 253 253 254 254 220 194 177 193 208 235 199 209 214 235 242 231 245 256 277 308 262 269 233 226 252 308 12 326 102 319 187 175 223 190 196 161 150 104 118 113 188
240 247 248 251 248 244 244 248 247 249 244 198 183 208 240 191 225 221 210 234 224 235 238 242 239 235 240 265 274 250 255 258 161 315 333 154 215 139 119 128 154 207 188 152 171 186 196
237 242 245 250 245 243 242 239 241 241 240 234 170 196 185 207 206 213 202 228 233 234 218 235 233 253 244 235 229 341 253 216 200 231 181 26 281 89 261 173 265 280 228 230 220 217 230
230 237 236 242 243 242 242 238 235 233 199 237 193 188 360 189 177 179 217 232 238 228 255 249 245 237 257 257 197 209 261 269 264 179 196 168 167 174 243 244 322 283 216 221 218 205 205
226 233 237 242 242 238 237 237 233 229 214 208 153 241 183 231 192 209 224 221 236 228 235 286 228 235 234 158 357 360 281 266 246 221 156 158 147 151 164 131 229 240 208 217 233 234 218
224 228 237 240 239 238 236 239 233 227 228 209 193 239 195 248 215 231 230 246 233 237 240 237 240 191 165 93 159 226 177 313 220 171 188 159 144 146 166 209 290 303 292 208 183 271 276
222 228 233 235 238 240 239 239 235 231 230 218 209 216 257 285 222 224 225 249 234 222 204 206 143 158 100 121 151 278 201 167 208 174 163 114 135 116 173 208 228 205 228 261 157 243 256
220 224 228 230 234 235 236 234 233 231 226 215 216 163 174 283 239 226 211 219 208 138 173 149 174 164 154 166 169 197 265 195 195 175 164 139 59 202 192 236 277 232 250 169 218 234 173
219 220 225 227 229 230 231 232 227 227 224 213 215 181 185 231 271 254 241 197 143 164 165 163 151 141 127 163 171 189 226 271 143 186 174 165 170 184 152 215 267 213 304 239 228 191 162
216 218 224 227 227 228 229 230 225 223 224 210 212 190 198 207 264 304 280 272 226 181 141 160 200 128 206 189 212 177 185 158 179 264 344 220 170 179 180 205 209 197 195 191 132 154 154